Regional Weather Roundup
Issued by NWS

Home | Current Version | Previous Version | Graphics & Text | Print | Product List | Glossary On
Versions: 1 2 3 4 5 6 7 8 9 10 11 12 13 14 15 16 17 18 19 20 21 22 23 24 25 26 27 28 29 30 31 32 33 34 35 36 37 38 39 40 41 42 43 44 45 46 47 48 49 50
000
ASUS43 KLSX 270107
RWRMO

WEATHER SUMMARY FOR MISSOURI
NATIONAL WEATHER SERVICE SPRINGFIELD MO
700 PM CST WED NOV 26 2014

NOTE: "FAIR" INDICATES FEW OR NO CLOUDS BELOW 12,000 FEET WITH NO
       SIGNIFICANT WEATHER AND/OR OBSTRUCTIONS TO VISIBILITY.
       CURRENT SKY AND/OR WEATHER CONDITIONS ARE NOT AVAILABLE FOR
       CHILLICOTHE AND FARMINGTON.

MOZ001>031-035>038-043-044-053-054-270200-
...NORTHERN AND WESTERN MISSOURI...

CITY           SKY/WX    TMP DP  RH WIND       PRES   REMARKS
KANSAS CTY INT CLOUDY    31  23  72 N23G30    30.24R WCI  18
KANSAS C DTWN  FLURRIES  33  23  66 NW16G32   30.24R WCI  23
LEE`S SUMMIT   CLOUDY    32  24  72 NW15G31   30.23R WCI  22
ST JOSEPH      CLOUDY    30  22  72 N21G32    30.29R WCI  17
CHILLICOTHE      N/A     32  28  85 NW9G25    30.19R WCI  24
KIRKSVILLE     LGT SNOW  32  31  96 N10       30.13R FOG     WCI  24

$$
MOZ066>068-077>081-088>096-101>105-270200-
...SOUTHWEST MISSOURI...

CITY           SKY/WX    TMP DP  RH WIND       PRES   REMARKS
SPRINGFIELD    CLOUDY    39  27  62 NW15G32   30.17R
JOPLIN         CLOUDY    39  26  59 NW14G25   30.26R

$$
MOZ032>034-039>042-045>050-055>058-069>072-270200-
...CENTRAL MISSOURI...

CITY           SKY/WX    TMP DP  RH WIND       PRES   REMARKS
COLUMBIA       LGT RAIN  34  30  85 NW23G32   30.10R WCI  22
JEFFERSON CITY CLOUDY    37  32  82 NW14G29   30.11R WCI  28
ROLLA          CLOUDY    36  31  82 NW21G30   30.06R WCI  25
SEDALIA        CLOUDY    34  28  79 NW22G33   30.17R WCI  22
WHITEMAN AFB   CLOUDY    33  27  79 NW20G28   30.18R WCI  21
WARRENSBURG    CLOUDY    32  28  86 NW15G28   30.21R WCI  22
OSAGE BEACH    CLOUDY    37  28  70 NW7G17    30.12R

$$
MOZ051-052-059>065-270200-
...EAST CENTRAL MISSOURI...

CITY           SKY/WX    TMP DP  RH WIND       PRES   REMARKS
ST LOUIS INTL  LGT SNOW  34  32  92 E3        30.05R
SPIRIT OF STL  LGT SNOW  32  31  96 CALM      30.05R FOG
ST CHARLES     CLOUDY    33  32  96 E3        30.06R FOG

$$
MOZ072>076-082>087-097>100-106>115-270200-
...SOUTH CENTRAL AND SOUTHEAST MISSOURI...

CITY           SKY/WX    TMP DP  RH WIND       PRES   REMARKS
CAPE GIRARDEAU CLOUDY    37  35  92 W7        30.07R
FARMINGTON     CLOUDY    36  34  93 W6        30.05R
POPLAR BLUFF   CLOUDY    38  32  79 W6        30.08R
WEST PLAINS    CLOUDY    40  29  64 W8        30.08R

$$



USA.gov is the U.S. government's official web portal to all federal, state and local government web resources and services.